CSS (TIANHE)

Last updated on Wed Jul 02 2025 00:02:10 GMT+0000 (Coordinated Universal Time)

1 48274U 21035A 25182.60423917 .00019858 00000+0 24610-3 0 9992 2 48274 41.4642 293.1216 0005721 229.4072 130.6269 15.59563973238400
UTC large
Height (km)
Speed (km/s)
/
Latitude / Longitude
Inclination (degrees)
Orbital Period (minutes)
Azimuth
Elevation
Range (km)
Doppler Factor

Next 0 passes for location: London (51.5072 / 0.1276)

Sorry there are no passes over London.